Volver al catálogo

THAICOM 1

ActivoComunicacionesGEO
NORAD 22931·PAYLOAD·🇹🇭 Thailand

Lanzado Dec 18, 1993 desde Guiana Space Centre

Loading…

TLE

ActualizadoSource: Space-Track

Época: Sep 14, 2026, 12:16 UTC

1 22931U 93078B   26257.51143531  .00000031  00000-0  00000-0 0  9993
2 22931  12.0691  34.0551 0006937 201.7866 340.2914  0.99182022 47053

Sigue THAICOM 1 en tiempo real con AllMySat

Download on the App Store